[[{"header":{"parameterUnit":"m.s-1","parameterCategory":2,"la1":30.2991,"la2":30.254,"lo1":-89.0895,"lo2":-89.0444,"dy":0.0017,"dx":0.0017,"nx":28,"ny":28,"refTime":"2024-03-16T03:00:00:Z","depth":"0","parameterNumber":2,"parameterNumberName":"U-component_of_CURRENTS"},"data":[0,0,0,0,0,0,0,0,0,0,0,0,0,0,0,0,0,0,0,0,0,0,0,0,0,0,0,0,0,0,0,0,0,0,0,0,0,0,0,0,0,0,0,0,0,0,0,0,0,0,0,0,0,0,0,0,0,0,-0.3502,-0.3501,0,-0.349,-0.3491,-0.3492,-0.3504,-0.3503,-0.3502,-0.3501,-0.3527,-0.3528,-0.353,0,0,0,0,0,0,0,0,0,0,0,0,0,-0.3553,-0.3553,-0.3502,-0.3501,-0.3499,-0.349,-0.3491,-0.3492,-0.3504,-0.3503,-0.3502,-0.3501,-0.3526,-0.3528,-0.353,0,0,0,0,0,0,0,0,0,0,0,0,0,-0.3548,-0.3553,-0.3503,-0.3494,-0.3492,-0.3489,-0.3491,-0.3492,-0.3504,-0.3503,-0.3502,-0.3501,-0.3526,-0.3528,-0.353,-0.3568,0,0,-0.3537,-0.3538,0,0,0,0,0,0,0,0,-0.3548,-0.3548,-0.3497,-0.3494,-0.3492,-0.3485,-0.3517,-0.3515,-0.3504,-0.3514,-0.3501,-0.35,-0.3508,-0.3512,-0.3532,-0.3569,-0.357,-0.3537,-0.3538,-0.3539,-0.354,0,0,0,0,0,0,0,-0.3549,-0.3548,-0.3512,-0.3495,-0.3492,-0.3495,-0.3495,-0.3518,-0.353,-0.3513,-0.3511,-0.3487,-0.3509,-0.3529,-0.3532,-0.357,-0.3537,-0.3539,-0.354,-0.3541,-0.3635,-0.3636,0,0,0,0,0,0,-0.3522,-0.3549,-0.3512,-0.351,-0.3502,-0.3494,-0.3494,-0.35,-0.3529,-0.3527,-0.3488,-0.3488,-0.3526,-0.3529,-0.3533,-0.3565,-0.3539,-0.3541,-0.3542,-0.3634,-0.3636,-0.3637,0,0,0,0,0,0,-0.3524,-0.3521,-0.3512,-0.3516,-0.3513,-0.3493,-0.35,-0.35,-0.3514,-0.3507,-0.3509,-0.3499,-0.3526,-0.353,-0.3546,-0.3566,-0.3542,-0.3544,-0.3633,-0.3635,-0.3636,-0.3637,0,0,0,0,0,0,-0.3527,-0.3523,-0.3544,-0.3515,-0.3511,-0.3531,-0.35,-0.35,-0.3495,-0.3494,-0.3517,-0.3518,-0.3525,-0.3543,-0.3548,-0.3568,-0.3546,-0.3631,-0.3634,-0.3636,-0.3635,-0.3638,-0.3641,0,0,0,0,0,-0.3529,-0.3559,-0.3546,-0.3541,-0.3534,-0.3531,-0.3533,-0.3522,-0.3496,-0.3527,-0.3516,-0.3518,-0.3561,-0.3545,-0.3551,-0.3572,-0.363,-0.3633,-0.3635,-0.3634,-0.3638,-0.3641,0,0,0,0,0,0,-0.361,-0.3561,-0.3546,-0.3566,-0.3552,-0.3528,-0.3536,-0.3523,-0.3543,-0.3527,-0.3528,-0.3531,-0.3563,-0.3567,-0.3549,-0.3609,-0.3599,-0.3603,-0.3596,-0.36,-0.3603,-0.355,-0.3547,0,0,0,0,0,-0.3629,-0.3645,-0.3591,-0.3621,-0.359,-0.3563,-0.3562,-0.3548,-0.3538,-0.3546,-0.3559,-0.3566,-0.3584,-0.3586,-0.3617,-0.3638,-0.3573,-0.366,-0.3662,-0.3665,-0.3628,-0.3519,-0.3506,-0.3646,-0.3646,-0.3646,0,0,-0.368,-0.3647,-0.3665,-0.3639,-0.3613,-0.3585,-0.3564,-0.3552,-0.3554,-0.3545,-0.3571,-0.3588,-0.3596,-0.3628,-0.3641,-0.3626,-0.3602,-0.3668,-0.367,-0.3631,-0.352,-0.3506,-0.3493,-0.3648,-0.3647,-0.3647,0,0,-0.3722,-0.3735,-0.3717,-0.3698,-0.3637,-0.3624,-0.3613,-0.3584,-0.3594,-0.3615,-0.3605,-0.3614,-0.3662,-0.3655,-0.3657,-0.3692,-0.3632,-0.3722,-0.3677,-0.3574,-0.3559,-0.3545,-0.3475,-0.3455,-0.3708,-0.3708,-0.3708,0,-0.3754,-0.3736,-0.3724,-0.3674,-0.3651,-0.363,-0.3592,-0.3611,-0.3612,-0.36,-0.3626,-0.3632,-0.3668,-0.3636,-0.3664,-0.3695,-0.3623,-0.3661,-0.357,-0.3555,-0.3541,-0.3472,-0.3449,-0.3709,-0.3709,-0.3709,-0.3709,0,-0.3749,-0.3735,-0.372,-0.3653,-0.3654,-0.363,-0.3607,-0.3628,-0.3633,-0.3625,-0.3621,-0.3648,-0.3635,-0.3669,-0.3683,-0.3612,-0.3593,-0.3593,-0.3546,-0.3525,-0.3457,-0.3433,-0.3709,-0.3709,-0.3709,-0.3709,0,0,-0.3719,-0.3715,-0.3688,-0.3661,-0.3629,-0.3613,-0.3628,-0.3602,-0.3559,-0.3603,-0.3542,-0.3608,-0.3592,-0.3591,-0.3602,-0.352,-0.3412,-0.351,-0.3505,-0.3414,-0.3175,-0.3122,-0.3091,-0.337,-0.3366,-0.3362,-0.3177,0,-0.367,-0.3622,-0.3629,-0.3589,-0.3545,-0.356,-0.3567,-0.3562,-0.356,-0.3518,-0.3517,-0.3487,-0.357,-0.3542,-0.3485,-0.3431,-0.3343,-0.3462,-0.323,-0.3224,-0.3155,-0.306,-0.2957,-0.2776,-0.3153,-0.3149,-0.3146,0,-0.3578,-0.3561,-0.3529,-0.3524,-0.3496,-0.3488,-0.3451,-0.346,-0.3418,-0.3413,-0.3374,-0.3364,-0.3311,-0.3356,-0.3224,-0.3285,-0.3227,-0.3172,-0.3164,-0.3081,-0.3124,-0.2854,-0.2719,-0.2706,-0.311,-0.3113,-0.3115,0,-0.35,-0.3464,-0.3455,-0.345,-0.3448,-0.3432,-0.3433,-0.3405,-0.3367,-0.3315,-0.3255,-0.3209,-0.3165,-0.3079,-0.3069,-0.3107,-0.2875,-0.2921,-0.2805,-0.2803,-0.2652,-0.2643,-0.2441,-0.2756,-0.2757,-0.2757,-0.2758,0,-0.3407,-0.3368,-0.3413,-0.3389,-0.3329,-0.3366,-0.3271,-0.3285,-0.3225,-0.314,-0.3181,-0.3096,-0.308,-0.2987,-0.2968,-0.2822,-0.2807,-0.2746,-0.272,-0.2659,-0.2653,-0.2586,-0.2647,-0.275,-0.2752,-0.2753,-0.2754,0,-0.3279,-0.3331,-0.328,-0.3288,-0.3284,-0.3227,-0.3165,-0.3083,-0.3092,-0.2974,-0.2952,-0.2956,-0.2867,-0.2835,-0.2696,-0.2681,-0.2503,-0.2503,-0.246,-0.243,-0.231,-0.2378,-0.2145,-0.2085,-0.2307,-0.2304,-0.2301,0,-0.3216,-0.3191,-0.3181,-0.3126,-0.3108,-0.304,-0.2974,-0.2994,-0.2921,-0.2888,-0.2819,-0.2741,-0.2668,-0.2488,-0.2427,-0.2309,-0.2355,-0.2147,-0.2202,-0.223,-0.2287,-0.2354,-0.2326,-0.2021,-0.2016,-0.2013,-0.201,0,-0.3048,-0.3052,-0.3009,-0.292,-0.2845,-0.2757,-0.2698,-0.2641,-0.2662,-0.2607,-0.255,-0.2495,-0.2382,-0.2241,-0.213,-0.2063,-0.2105,-0.2065,-0.2066,-0.1996,-0.2075,-0.2031,-0.2269,-0.1976,-0.198,-0.1982,-0.1984,-0.1985,-0.2893,-0.2815,-0.277,-0.2648,-0.2574,-0.2472,-0.2362,-0.2359,-0.2276,-0.2217,-0.2275,-0.2181,-0.2111,-0.1946,-0.1877,-0.1742,-0.1843,-0.1694,-0.176,-0.1815,-0.1777,-0.1962,-0.1672,-0.1673,-0.1674,-0.1676,-0.1677,0,-0.2672,-0.2603,-0.2494,-0.2352,-0.2191,-0.2239,-0.215,-0.2051,-0.1962,-0.198,-0.1927,-0.1839,-0.171,-0.1674,-0.1566,-0.1478,-0.1462,-0.1445,-0.1506,-0.1481,-0.1578,-0.1588,-0.1298,-0.1298,-0.1298,-0.1298,-0.1298,-0.1299,-0.2554,-0.2374,-0.2312,-0.1994,-0.1903,-0.1689,-0.1621,-0.1585,-0.1569,-0.1488,-0.1472,-0.1471,-0.1498,-0.1596,-0.1478,-0.1391,-0.138,-0.1324,-0.1372,-0.147,-0.15,-0.1528,-0.1546,-0.1253,-0.1253,-0.1199,-0.1199,-0.1199]},{"header":{"parameterUnit":"m.s-1","parameterCategory":2,"la1":30.2991,"la2":30.254,"lo1":-89.0895,"lo2":-89.0444,"dy":0.0017,"dx":0.0017,"nx":28,"ny":28,"refTime":"2024-03-16T03:00:00:Z","depth":"0","parameterNumber":3,"parameterNumberName":"V-component_of_CURRENTS"},"data":[0,0,0,0,0,0,0,0,0,0,0,0,0,0,0,0,0,0,0,0,0,0,0,0,0,0,0,0,0,0,0,0,0,0,0,0,0,0,0,0,0,0,0,0,0,0,0,0,0,0,0,0,0,0,0,0,0,0,0.0028,0.0029,0,0.0186,0.0189,0.0191,0.0305,0.0305,0.0305,0.0305,0.0611,0.0619,0.0627,0,0,0,0,0,0,0,0,0,0,0,0,0,-0.0121,-0.0119,0.0028,0.0029,0.0031,0.0186,0.0189,0.0192,0.0305,0.0305,0.0305,0.0306,0.0608,0.0618,0.0627,0,0,0,0,0,0,0,0,0,0,0,0,0,-0.0012,-0.0118,0.0028,0.01,0.0108,0.0185,0.0189,0.0192,0.0305,0.0305,0.0305,0.0306,0.0605,0.0617,0.0629,0.0695,0,0,0.0665,0.067,0,0,0,0,0,0,0,0,-0.0018,-0.0006,0.0088,0.0095,0.0104,0.0219,0.0248,0.0365,0.0305,0.0238,0.0305,0.0306,0.0488,0.051,0.0548,0.0709,0.0723,0.0666,0.0673,0.0678,0.0682,0,0,0,0,0,0,0,-0.0026,-0.0012,0.0099,0.0089,0.0099,0.0142,0.0159,0.0271,0.0368,0.0244,0.0251,0.0256,0.0495,0.0536,0.0556,0.0727,0.0666,0.0676,0.0684,0.0688,0.0923,0.0922,0,0,0,0,0,0,-0.0064,-0.0019,0.0093,0.0103,0.0033,0.0144,0.0163,0.0188,0.0364,0.0388,0.0255,0.026,0.0516,0.0542,0.0567,0.0627,0.0678,0.0689,0.0696,0.0924,0.0923,0.0922,0,0,0,0,0,0,-0.0067,-0.0055,0.0087,0.0038,0.0058,0.0145,0.0173,0.0191,0.0229,0.0369,0.0398,0.0273,0.0517,0.0551,0.0641,0.0641,0.0695,0.0706,0.0925,0.0923,0.0922,0.0766,0,0,0,0,0,0,-0.0072,-0.0056,-0.0053,0.0036,0.0059,0.0127,0.0173,0.0193,0.0228,0.0236,0.0395,0.0423,0.052,0.0622,0.0653,0.0658,0.0715,0.0926,0.0924,0.0923,0.0772,0.0759,0.0748,0,0,0,0,0,-0.0077,-0.0067,-0.0053,-0.004,0.0063,0.0126,0.0144,0.0211,0.0228,0.0247,0.0331,0.0418,0.0633,0.0631,0.0667,0.0676,0.0927,0.0925,0.0923,0.0778,0.0762,0.0749,0,0,0,0,0,0,-0.013,-0.0053,-0.0035,-0.0003,0.0048,0.0142,0.016,0.02,0.0282,0.0285,0.0416,0.0451,0.0533,0.0619,0.0613,0.0735,0.0792,0.0797,0.0669,0.0656,0.0645,0.0611,0.0725,0,0,0,0,0,-0.0146,-0.0112,-0.0045,-0.0021,-0.0004,0.0071,0.0102,0.0143,0.0222,0.0258,0.0364,0.0466,0.0554,0.0612,0.0713,0.0785,0.083,0.081,0.0798,0.0787,0.0783,0.0798,0.0786,0.0915,0.0915,0.0915,0,0,-0.0161,-0.0116,-0.0099,-0.0031,0.0013,0.0028,0.0094,0.0131,0.015,0.0281,0.0348,0.0439,0.0563,0.0637,0.0681,0.0709,0.0777,0.0785,0.0775,0.0777,0.0794,0.0781,0.077,0.0914,0.0914,0.0914,0,0,-0.0193,-0.014,-0.0138,-0.0106,-0.006,-0.0005,-0.0006,0.0079,0.0125,0.0194,0.0277,0.035,0.0511,0.0581,0.0639,0.0623,0.0713,0.0661,0.0582,0.0595,0.0584,0.0574,0.0619,0.0615,0.0653,0.0653,0.0653,0,-0.0233,-0.0213,-0.013,-0.0135,-0.0123,-0.0033,-0.0048,0.0016,0.012,0.0149,0.0197,0.0372,0.0482,0.0542,0.0536,0.0598,0.0623,0.0623,0.0576,0.0568,0.0561,0.0609,0.0607,0.0645,0.0646,0.0647,0.0647,0,-0.0266,-0.0267,-0.0265,-0.0238,-0.0202,-0.0199,-0.0119,-0.0074,-0.0009,0.0054,0.0135,0.0264,0.0362,0.0405,0.0478,0.0484,0.0524,0.0555,0.0602,0.0538,0.0594,0.0594,0.0634,0.0637,0.0639,0.0641,0,0,-0.0348,-0.0303,-0.0313,-0.0327,-0.0267,-0.0241,-0.0208,-0.0152,-0.0137,-0.0029,-0.0005,0.0136,0.0197,0.0264,0.0353,0.0373,0.036,0.0432,0.0437,0.046,0.0399,0.0486,0.0496,0.0365,0.0364,0.0363,0.0458,0,-0.0425,-0.0466,-0.0403,-0.044,-0.0464,-0.0371,-0.0339,-0.0271,-0.019,-0.0133,-0.0021,0.0052,0.0146,0.0185,0.0214,0.0339,0.0352,0.0333,0.0474,0.0479,0.055,0.0496,0.0539,0.0632,0.0459,0.0459,0.046,0,-0.0504,-0.0523,-0.0577,-0.0556,-0.0553,-0.0543,-0.0486,-0.0444,-0.0341,-0.0277,-0.0205,-0.0101,-0.002,0.005,0.0191,0.0169,0.0262,0.0346,0.0352,0.0488,0.0566,0.0671,0.064,0.0799,0.0461,0.0461,0.0461,0,-0.0628,-0.0646,-0.069,-0.0691,-0.0645,-0.0639,-0.0597,-0.0503,-0.046,-0.0379,-0.034,-0.0232,-0.0152,-0.0052,0.0162,0.0157,0.0313,0.0333,0.0494,0.0503,0.06,0.0619,0.0727,0.0386,0.0386,0.0386,0.0385,0,-0.0743,-0.0789,-0.0756,-0.0793,-0.0823,-0.0747,-0.0743,-0.0684,-0.0598,-0.0548,-0.043,-0.0362,-0.018,-0.0042,0.0109,0.0327,0.0275,0.0475,0.0523,0.055,0.0563,0.0758,0.0827,0.0389,0.0389,0.0388,0.0387,0,-0.0868,-0.0856,-0.0912,-0.0895,-0.0887,-0.0905,-0.083,-0.0811,-0.0728,-0.0665,-0.0642,-0.0459,-0.0262,-0.006,0.0149,0.0289,0.058,0.0547,0.0592,0.0642,0.0928,0.0987,0.1157,0.1265,0.0718,0.0721,0.0723,0,-0.0928,-0.0978,-0.0995,-0.1012,-0.1005,-0.1005,-0.0985,-0.0895,-0.0854,-0.07,-0.067,-0.0475,-0.0287,0.0065,0.0327,0.0595,0.0709,0.0777,0.0773,0.0947,0.1047,0.1078,0.1158,0.0846,0.0849,0.0852,0.0854,0,-0.1045,-0.1048,-0.108,-0.1123,-0.1126,-0.1116,-0.108,-0.1063,-0.0928,-0.0841,-0.0664,-0.0509,-0.0142,0.0215,0.0558,0.0707,0.0908,0.0836,0.0989,0.1134,0.1199,0.1326,0.0804,0.0876,0.0873,0.0872,0.0871,0.087,-0.1113,-0.1153,-0.1179,-0.1205,-0.1209,-0.1192,-0.117,-0.1078,-0.0985,-0.0749,-0.0654,-0.0322,0.0119,0.063,0.0815,0.1182,0.1123,0.1272,0.1325,0.1336,0.1451,0.0996,0.1138,0.1137,0.1137,0.1136,0.1136,0,-0.118,-0.1203,-0.1244,-0.1265,-0.1262,-0.1246,-0.1188,-0.1097,-0.0942,-0.0643,-0.0418,0.0108,0.0562,0.0974,0.1454,0.1654,0.1688,0.1734,0.1773,0.1829,0.1406,0.1423,0.1665,0.1665,0.1665,0.1664,0.1664,0.1664,-0.1215,-0.1262,-0.127,-0.1284,-0.1285,-0.1246,-0.12,-0.1021,-0.0782,-0.0264,0.0132,0.0417,0.0877,0.1585,0.2037,0.2073,0.2254,0.2222,0.2327,0.2022,0.1982,0.1944,0.1977,0.233,0.2331,0.2731,0.2735,0.2738]}],[{"header":{"parameterUnit":"m.s-1","parameterCategory":2,"la1":30.2991,"la2":30.254,"lo1":-89.0895,"lo2":-89.0444,"dy":0.0017,"dx":0.0017,"nx":28,"ny":28,"refTime":"2024-03-16T03:00:00:Z","depth":"2","parameterNumber":2,"parameterNumberName":"U-component_of_CURRENTS"},"data":[0,0,0,0,0,0,0,0,0,0,0,0,0,0,0,0,0,0,0,0,0,0,0,0,0,0,0,0,0,0,0,0,0,0,0,0,0,0,0,0,0,0,0,0,0,0,0,0,0,0,0,0,0,0,0,0,0,0,-0.2256,-0.2257,0,-0.2307,-0.2307,-0.2307,-0.2292,-0.2291,-0.229,-0.229,-0.2235,-0.2234,-0.2234,0,0,0,0,0,0,0,0,0,0,0,0,0,-0.2116,-0.2119,-0.2256,-0.2257,-0.2258,-0.2307,-0.2307,-0.2307,-0.2292,-0.2291,-0.229,-0.2289,-0.2236,-0.2235,-0.2233,0,0,0,0,0,0,0,0,0,0,0,0,0,-0.2169,-0.212,-0.2255,-0.2259,-0.226,-0.2307,-0.2307,-0.2307,-0.2292,-0.2291,-0.229,-0.2289,-0.2236,-0.2235,-0.2233,-0.2245,0,0,-0.2229,-0.2229,0,0,0,0,0,0,0,0,-0.2166,-0.2173,-0.2258,-0.2259,-0.2261,-0.2296,-0.2238,-0.2283,-0.2292,-0.2275,-0.229,-0.2289,-0.2249,-0.2247,-0.2254,-0.2242,-0.224,-0.2229,-0.2229,-0.2228,-0.2228,0,0,0,0,0,0,0,-0.2162,-0.2171,-0.2271,-0.2259,-0.2261,-0.2249,-0.2255,-0.2247,-0.2261,-0.2277,-0.2277,-0.229,-0.2249,-0.2255,-0.2252,-0.2239,-0.2229,-0.2228,-0.2227,-0.2227,-0.2292,-0.2295,0,0,0,0,0,0,-0.2169,-0.2168,-0.227,-0.2273,-0.2215,-0.2253,-0.226,-0.2282,-0.2264,-0.2263,-0.2291,-0.2289,-0.2258,-0.2254,-0.225,-0.2293,-0.2228,-0.2227,-0.2226,-0.229,-0.2293,-0.2296,0,0,0,0,0,0,-0.2165,-0.2177,-0.2268,-0.2224,-0.2236,-0.2257,-0.2282,-0.2283,-0.2296,-0.2277,-0.2272,-0.2303,-0.2257,-0.2252,-0.2269,-0.2289,-0.2226,-0.2225,-0.2287,-0.2291,-0.2294,-0.2359,0,0,0,0,0,0,-0.2161,-0.2176,-0.218,-0.2225,-0.2239,-0.2306,-0.2283,-0.2285,-0.2308,-0.2306,-0.2286,-0.228,-0.2256,-0.2272,-0.2268,-0.2286,-0.2224,-0.2284,-0.2289,-0.2293,-0.2354,-0.2365,-0.2374,0,0,0,0,0,-0.2156,-0.2168,-0.218,-0.2191,-0.2248,-0.2307,-0.2313,-0.232,-0.231,-0.2325,-0.2322,-0.228,-0.2299,-0.2273,-0.2268,-0.2286,-0.2282,-0.2287,-0.2293,-0.2349,-0.2362,-0.2374,0,0,0,0,0,0,-0.2104,-0.217,-0.2183,-0.2212,-0.2263,-0.2307,-0.2324,-0.233,-0.2342,-0.2338,-0.2309,-0.2305,-0.2328,-0.231,-0.2282,-0.2325,-0.2284,-0.2289,-0.2329,-0.2341,-0.2351,-0.2331,-0.2223,0,0,0,0,0,-0.2099,-0.2123,-0.2193,-0.2214,-0.2253,-0.2292,-0.2311,-0.2325,-0.2349,-0.2353,-0.2346,-0.2343,-0.2349,-0.2346,-0.2348,-0.2367,-0.2327,-0.2381,-0.2391,-0.2399,-0.2384,-0.2359,-0.2364,-0.2314,-0.2314,-0.2314,0,0,-0.2052,-0.2121,-0.211,-0.2204,-0.2248,-0.231,-0.2301,-0.2349,-0.2377,-0.2345,-0.2375,-0.2376,-0.2365,-0.2393,-0.2401,-0.2376,-0.2397,-0.2406,-0.2413,-0.2393,-0.2365,-0.2369,-0.2373,-0.2318,-0.2317,-0.2317,0,0,-0.2047,-0.2079,-0.2122,-0.2179,-0.2276,-0.2314,-0.2336,-0.2399,-0.2405,-0.2444,-0.2432,-0.2441,-0.2458,-0.2449,-0.2446,-0.2512,-0.2454,-0.253,-0.2554,-0.2531,-0.2534,-0.2535,-0.2499,-0.2496,-0.2531,-0.2531,-0.2531,0,-0.2035,-0.2088,-0.2138,-0.2229,-0.2269,-0.2325,-0.2385,-0.2412,-0.246,-0.2461,-0.2462,-0.2485,-0.2475,-0.2489,-0.2524,-0.2527,-0.2509,-0.2504,-0.254,-0.2541,-0.2541,-0.2503,-0.2499,-0.2535,-0.2534,-0.2534,-0.2533,0,-0.2061,-0.212,-0.2164,-0.2293,-0.2334,-0.2399,-0.246,-0.2491,-0.2511,-0.2525,-0.2546,-0.2546,-0.2548,-0.2565,-0.2565,-0.2579,-0.2564,-0.2555,-0.2498,-0.2549,-0.2507,-0.2502,-0.254,-0.2539,-0.2538,-0.2537,0,0,-0.2061,-0.2166,-0.2196,-0.2239,-0.2375,-0.2412,-0.2472,-0.2533,-0.2549,-0.2583,-0.259,-0.2616,-0.2606,-0.2604,-0.2605,-0.2596,-0.2594,-0.259,-0.2588,-0.2533,-0.2543,-0.2454,-0.244,-0.2601,-0.26,-0.26,-0.2514,0,-0.211,-0.2238,-0.2281,-0.237,-0.2432,-0.2484,-0.2526,-0.2565,-0.2596,-0.2617,-0.2608,-0.2622,-0.2625,-0.2629,-0.2624,-0.2604,-0.2585,-0.2617,-0.2518,-0.2515,-0.2412,-0.2432,-0.2268,-0.2171,-0.2509,-0.2508,-0.2507,0,-0.215,-0.2239,-0.2324,-0.2395,-0.2429,-0.2474,-0.2533,-0.2574,-0.2612,-0.2627,-0.2638,-0.264,-0.2638,-0.2633,-0.259,-0.262,-0.2585,-0.2562,-0.2558,-0.244,-0.2416,-0.2175,-0.2148,-0.2498,-0.2499,-0.2499,-0.25,0,-0.2118,-0.2261,-0.2316,-0.235,-0.2451,-0.2471,-0.2517,-0.2566,-0.2583,-0.2626,-0.2632,-0.264,-0.2622,-0.2601,-0.2559,-0.2582,-0.2499,-0.2512,-0.2389,-0.2382,-0.22,-0.2177,-0.2463,-0.2463,-0.2463,-0.2464,-0.2464,0,-0.2153,-0.2199,-0.2296,-0.2332,-0.2365,-0.2439,-0.2471,-0.251,-0.2563,-0.2567,-0.2621,-0.261,-0.2616,-0.2576,-0.2552,-0.2441,-0.2479,-0.2378,-0.235,-0.2221,-0.2203,-0.2453,-0.2453,-0.246,-0.2461,-0.2462,-0.2462,0,-0.2091,-0.2171,-0.2221,-0.2323,-0.2345,-0.2355,-0.2428,-0.2448,-0.2512,-0.2517,-0.2527,-0.2569,-0.2517,-0.2496,-0.2442,-0.2394,-0.2324,-0.2273,-0.2116,-0.2072,-0.2228,-0.2233,-0.2128,-0.2124,-0.2121,-0.2118,-0.2116,0,-0.2064,-0.2088,-0.2179,-0.2192,-0.2235,-0.2277,-0.2303,-0.2395,-0.2418,-0.2473,-0.2457,-0.2441,-0.2386,-0.2278,-0.2207,-0.2112,-0.2204,-0.1909,-0.1915,-0.2207,-0.2192,-0.2202,-0.2211,-0.1704,-0.1699,-0.1694,-0.1691,0,-0.1982,-0.2009,-0.2044,-0.209,-0.2116,-0.2144,-0.2192,-0.2207,-0.23,-0.2304,-0.2285,-0.225,-0.2166,-0.1996,-0.1895,-0.1831,-0.1919,-0.1813,-0.2135,-0.1823,-0.1803,-0.179,-0.1813,-0.1651,-0.1655,-0.1658,-0.166,-0.1661,-0.1881,-0.1873,-0.1917,-0.1939,-0.1974,-0.1982,-0.1953,-0.2021,-0.2015,-0.1984,-0.2055,-0.1934,-0.1914,-0.1662,-0.1569,-0.1502,-0.164,-0.1571,-0.1587,-0.1607,-0.1582,-0.1557,-0.1354,-0.1356,-0.1358,-0.1359,-0.1361,0,-0.1734,-0.1744,-0.1767,-0.1778,-0.1761,-0.1831,-0.1847,-0.1792,-0.1734,-0.1735,-0.1683,-0.1482,-0.1359,-0.1346,-0.1179,-0.1148,-0.116,-0.1099,-0.1122,-0.1161,-0.1197,-0.1154,-0.081,-0.0808,-0.0807,-0.0805,0,0,-0.1628,-0.1595,-0.1619,-0.1546,-0.1565,-0.1476,-0.1447,-0.1396,-0.1361,-0.1255,-0.1189,-0.1256,-0.1281,-0.1041,-0.099,-0.0868,-0.1003,-0.0819,-0.1258,-0.1321,-0.1355,-0.1461,-0.1437,0,0,0,0,0]},{"header":{"parameterUnit":"m.s-1","parameterCategory":2,"la1":30.2991,"la2":30.254,"lo1":-89.0895,"lo2":-89.0444,"dy":0.0017,"dx":0.0017,"nx":28,"ny":28,"refTime":"2024-03-16T03:00:00:Z","depth":"2","parameterNumber":3,"parameterNumberName":"V-component_of_CURRENTS"},"data":[0,0,0,0,0,0,0,0,0,0,0,0,0,0,0,0,0,0,0,0,0,0,0,0,0,0,0,0,0,0,0,0,0,0,0,0,0,0,0,0,0,0,0,0,0,0,0,0,0,0,0,0,0,0,0,0,0,0,-0.0407,-0.0406,0,-0.0321,-0.032,-0.0319,-0.0271,-0.0271,-0.0271,-0.0271,-0.0178,-0.0176,-0.0173,0,0,0,0,0,0,0,0,0,0,0,0,0,-0.0472,-0.0472,-0.0407,-0.0406,-0.0404,-0.0321,-0.032,-0.0319,-0.0272,-0.0271,-0.0271,-0.027,-0.0178,-0.0176,-0.0173,0,0,0,0,0,0,0,0,0,0,0,0,0,-0.0423,-0.0472,-0.0407,-0.0369,-0.0365,-0.0321,-0.032,-0.0319,-0.0272,-0.0271,-0.0271,-0.027,-0.0179,-0.0176,-0.0173,-0.0162,0,0,-0.0163,-0.0161,0,0,0,0,0,0,0,0,-0.0426,-0.0421,-0.0376,-0.0372,-0.0367,-0.0305,-0.0309,-0.0266,-0.0272,-0.0309,-0.0271,-0.027,-0.0219,-0.0212,-0.02,-0.0158,-0.0154,-0.0163,-0.0161,-0.0159,-0.0158,0,0,0,0,0,0,0,-0.0429,-0.0424,-0.0375,-0.0375,-0.0369,-0.0337,-0.033,-0.03,-0.0269,-0.0306,-0.0302,-0.0289,-0.0216,-0.0203,-0.0197,-0.0152,-0.0163,-0.016,-0.0158,-0.0156,-0.006,-0.006,0,0,0,0,0,0,-0.044,-0.0427,-0.0378,-0.0372,-0.0394,-0.0336,-0.0328,-0.0327,-0.0269,-0.0259,-0.029,-0.0287,-0.0209,-0.0201,-0.0194,-0.0159,-0.0159,-0.0156,-0.0154,-0.0061,-0.006,-0.006,0,0,0,0,0,0,-0.0442,-0.0437,-0.0381,-0.0395,-0.0386,-0.0336,-0.0334,-0.0325,-0.0308,-0.0257,-0.0247,-0.0281,-0.0208,-0.0198,-0.016,-0.0156,-0.0155,-0.0152,-0.0062,-0.0061,-0.006,-0.0101,0,0,0,0,0,0,-0.0444,-0.0438,-0.0444,-0.0397,-0.0385,-0.0362,-0.0334,-0.0324,-0.0301,-0.0297,-0.0246,-0.0237,-0.0207,-0.0165,-0.0156,-0.0151,-0.0149,-0.0062,-0.0061,-0.006,-0.0101,-0.0102,-0.0103,0,0,0,0,0,-0.0447,-0.0467,-0.0445,-0.0439,-0.0395,-0.0363,-0.0355,-0.0317,-0.0301,-0.03,-0.0256,-0.0239,-0.0152,-0.0162,-0.0152,-0.0146,-0.0063,-0.0062,-0.006,-0.01,-0.0102,-0.0103,0,0,0,0,0,0,-0.0502,-0.0462,-0.0438,-0.0445,-0.0405,-0.0354,-0.0349,-0.0321,-0.0286,-0.0282,-0.0232,-0.022,-0.0188,-0.0158,-0.017,-0.0113,-0.0104,-0.0101,-0.0138,-0.0139,-0.014,-0.0152,-0.0146,0,0,0,0,0,-0.0515,-0.0517,-0.0466,-0.0469,-0.0451,-0.0398,-0.0381,-0.0356,-0.0315,-0.03,-0.0259,-0.0215,-0.0175,-0.0151,-0.0119,-0.0086,-0.005,-0.0074,-0.0075,-0.0077,-0.0079,-0.0016,-0.0012,-0.0055,-0.0055,-0.0055,0,0,-0.0537,-0.0513,-0.0515,-0.0479,-0.0445,-0.0428,-0.0388,-0.0368,-0.0353,-0.0295,-0.0267,-0.0224,-0.0169,-0.0134,-0.0116,-0.0107,-0.0045,-0.0075,-0.0077,-0.0078,-0.0014,-0.001,-0.0006,-0.0054,-0.0055,-0.0055,0,0,-0.0578,-0.0557,-0.0569,-0.0539,-0.0493,-0.0458,-0.0453,-0.0401,-0.0378,-0.0345,-0.0295,-0.0244,-0.0193,-0.0142,-0.0112,-0.0098,-0.0059,-0.0089,-0.0098,-0.0037,-0.0033,-0.0029,0.0019,0.0027,-0.0083,-0.0083,-0.0083,0,-0.06,-0.0607,-0.0566,-0.0561,-0.0539,-0.0474,-0.0472,-0.044,-0.0382,-0.0357,-0.0347,-0.0239,-0.0197,-0.013,-0.0123,-0.0102,-0.0065,-0.0101,-0.004,-0.0035,-0.003,0.0018,0.0028,-0.0085,-0.0084,-0.0084,-0.0084,0,-0.0641,-0.0642,-0.0644,-0.0613,-0.0587,-0.0577,-0.0519,-0.0493,-0.0455,-0.0411,-0.0348,-0.0278,-0.0209,-0.0184,-0.015,-0.0087,-0.0072,-0.0056,-0.0041,-0.0029,0.0022,0.0033,-0.0087,-0.0087,-0.0086,-0.0086,0,0,-0.0695,-0.0678,-0.0676,-0.0669,-0.0614,-0.0597,-0.057,-0.0518,-0.049,-0.043,-0.0385,-0.0303,-0.0253,-0.0214,-0.0152,-0.0091,-0.0027,-0.0062,-0.0058,-0.0024,0.0103,0.0135,0.0151,0.0001,0.0003,0.0004,0.0123,0,-0.0731,-0.0751,-0.0722,-0.0723,-0.0723,-0.0655,-0.0629,-0.0574,-0.0518,-0.046,-0.037,-0.0312,-0.0267,-0.0228,-0.016,-0.006,0.0001,-0.0061,0.0094,0.0098,0.0119,0.0165,0.0132,0.0238,0.0134,0.0136,0.0138,0,-0.0774,-0.0781,-0.0805,-0.0775,-0.0765,-0.0754,-0.0688,-0.0656,-0.0558,-0.0512,-0.0428,-0.0357,-0.0251,-0.0223,-0.0048,-0.009,-0.0001,0.0075,0.0082,0.0134,0.0152,0.0212,0.0262,0.0157,0.0155,0.0154,0.0152,0,-0.0838,-0.0831,-0.0857,-0.0848,-0.0807,-0.0798,-0.0763,-0.0678,-0.0641,-0.0542,-0.05,-0.0371,-0.0301,-0.0174,-0.002,-0.0031,0.0168,0.0173,0.0287,0.029,0.0304,0.0305,0.0292,0.0291,0.0291,0.0291,0.0291,0,-0.089,-0.0906,-0.0893,-0.0907,-0.0915,-0.086,-0.084,-0.0783,-0.0696,-0.0643,-0.0533,-0.0458,-0.0286,-0.0151,-0.0021,0.0173,0.017,0.0297,0.0332,0.0289,0.0287,0.0247,0.024,0.0295,0.0294,0.0293,0.0293,0,-0.096,-0.0956,-0.0979,-0.0958,-0.0954,-0.0957,-0.0899,-0.0872,-0.0786,-0.0712,-0.0683,-0.0514,-0.0331,-0.0156,0.0064,0.0175,0.0349,0.0414,0.0347,0.0371,0.0427,0.0417,0.0556,0.0559,0.0561,0.0562,0.0564,0,-0.0999,-0.1027,-0.1029,-0.1043,-0.1041,-0.1033,-0.1019,-0.0933,-0.0889,-0.0735,-0.0697,-0.0515,-0.0358,-0.0028,0.019,0.0428,0.0418,0.0527,0.0507,0.044,0.0459,0.0445,0.0433,0.0507,0.0508,0.0509,0.0509,0,-0.1061,-0.1065,-0.1077,-0.1118,-0.1124,-0.1116,-0.1084,-0.106,-0.0941,-0.085,-0.0687,-0.0552,-0.0238,0.0035,0.0325,0.0449,0.0485,0.0549,0.052,0.0441,0.0403,0.0418,0.0406,0.0515,0.0515,0.0514,0.0514,0.0514,-0.1093,-0.1117,-0.1138,-0.1171,-0.1181,-0.1177,-0.1156,-0.1085,-0.0996,-0.0814,-0.0695,-0.0444,-0.021,0.0231,0.0424,0.0593,0.0582,0.0621,0.0616,0.061,0.0578,0.0546,0.0679,0.0679,0.0679,0.068,0.068,0,-0.112,-0.1146,-0.1186,-0.1213,-0.1229,-0.1222,-0.1175,-0.1112,-0.0987,-0.0804,-0.0615,-0.0306,0.0,0.0243,0.0529,0.069,0.0654,0.07,0.0625,0.0618,0.0612,0.0577,0.0679,0.068,0.0681,0.0681,0,0,-0.1137,-0.1174,-0.1195,-0.1236,-0.1256,-0.1241,-0.1205,-0.108,-0.0937,-0.0717,-0.051,-0.027,0.0019,0.023,0.0417,0.0561,0.0536,0.0559,0.0538,0.0416,0.0409,0.0543,0.048,0,0,0,0,0]}],[{"header":{"parameterUnit":"m.s-1","parameterCategory":2,"la1":30.2991,"la2":30.254,"lo1":-89.0895,"lo2":-89.0444,"dy":0.0017,"dx":0.0017,"nx":28,"ny":28,"refTime":"2024-03-16T03:00:00:Z","depth":"4","parameterNumber":2,"parameterNumberName":"U-component_of_CURRENTS"},"data":[0,0,0,0,0,0,0,0,0,0,0,0,0,0,0,0,0,0,0,0,0,0,0,0,0,0,0,0,0,0,0,0,0,0,0,0,0,0,0,0,0,0,0,0,0,0,0,0,0,0,0,0,0,0,0,0,0,0,-0.1382,-0.1383,0,-0.1454,-0.1454,-0.1455,-0.1481,-0.1481,-0.1481,-0.1481,-0.154,-0.1541,-0.1542,0,0,0,0,0,0,0,0,0,0,0,0,0,-0.1255,-0.1257,-0.1382,-0.1383,-0.1384,-0.1454,-0.1454,-0.1455,-0.1481,-0.1481,-0.1481,-0.1481,-0.1539,-0.1541,-0.1543,0,0,0,0,0,0,0,0,0,0,0,0,0,-0.1313,-0.1257,-0.1381,-0.1408,-0.1412,-0.1453,-0.1454,-0.1455,-0.1481,-0.1481,-0.1481,-0.1481,-0.1539,-0.1541,-0.1543,-0.1552,0,0,-0.1549,-0.155,0,0,0,0,0,0,0,0,-0.1309,-0.1317,-0.1403,-0.1407,-0.1411,-0.1462,-0.1431,-0.1488,-0.1481,-0.145,-0.1481,-0.1481,-0.1515,-0.1519,-0.1527,-0.1555,-0.1558,-0.155,-0.1551,-0.1552,-0.1552,0,0,0,0,0,0,0,-0.1305,-0.1314,-0.1406,-0.1405,-0.1409,-0.1413,-0.1421,-0.1442,-0.1477,-0.1453,-0.1456,-0.147,-0.1516,-0.1524,-0.1528,-0.1559,-0.155,-0.1551,-0.1553,-0.1554,-0.1668,-0.167,0,0,0,0,0,0,-0.1306,-0.131,-0.1404,-0.1409,-0.1364,-0.1416,-0.1425,-0.1442,-0.1477,-0.1484,-0.147,-0.1471,-0.1521,-0.1526,-0.153,-0.1611,-0.1552,-0.1554,-0.1555,-0.1667,-0.1669,-0.1671,0,0,0,0,0,0,-0.1303,-0.1313,-0.1401,-0.1364,-0.1376,-0.1418,-0.1437,-0.1443,-0.1475,-0.1491,-0.1497,-0.1499,-0.1521,-0.1527,-0.1574,-0.1611,-0.1555,-0.1557,-0.1665,-0.1667,-0.167,-0.173,0,0,0,0,0,0,-0.1299,-0.1312,-0.1328,-0.1364,-0.1378,-0.144,-0.1438,-0.1445,-0.1484,-0.1487,-0.1517,-0.1522,-0.1522,-0.1571,-0.1576,-0.1613,-0.1558,-0.1662,-0.1666,-0.1669,-0.1726,-0.1734,-0.1742,0,0,0,0,0,-0.1294,-0.1313,-0.1328,-0.134,-0.1398,-0.1441,-0.1449,-0.1476,-0.1486,-0.1504,-0.153,-0.1522,-0.1596,-0.1574,-0.158,-0.1618,-0.1661,-0.1665,-0.1669,-0.1722,-0.1733,-0.1742,0,0,0,0,0,0,-0.1263,-0.1319,-0.1336,-0.1371,-0.1411,-0.1448,-0.1473,-0.1491,-0.1526,-0.1537,-0.1544,-0.1551,-0.1604,-0.1605,-0.1582,-0.1662,-0.1627,-0.1632,-0.1666,-0.1676,-0.1684,-0.1681,-0.156,0,0,0,0,0,-0.1265,-0.1297,-0.1348,-0.1377,-0.1403,-0.1442,-0.1466,-0.149,-0.1525,-0.1541,-0.1568,-0.1595,-0.1622,-0.1644,-0.1664,-0.1711,-0.1697,-0.174,-0.1748,-0.1754,-0.1757,-0.1781,-0.1791,-0.1684,-0.1684,-0.1684,0,0,-0.1257,-0.1297,-0.1312,-0.1373,-0.1408,-0.1457,-0.1457,-0.1507,-0.155,-0.1542,-0.1612,-0.1625,-0.164,-0.169,-0.1715,-0.1699,-0.1775,-0.1759,-0.1765,-0.1764,-0.1786,-0.1796,-0.1806,-0.1686,-0.1686,-0.1685,0,0,-0.1269,-0.1302,-0.1339,-0.1381,-0.1449,-0.1476,-0.1498,-0.1557,-0.1587,-0.165,-0.1655,-0.169,-0.1743,-0.1755,-0.1767,-0.1832,-0.1814,-0.1848,-0.1893,-0.1916,-0.1925,-0.1932,-0.1912,-0.1917,-0.1856,-0.1856,-0.1856,0,-0.1265,-0.1318,-0.1354,-0.141,-0.1451,-0.1491,-0.1544,-0.1582,-0.1649,-0.1677,-0.1684,-0.1764,-0.1771,-0.1824,-0.1846,-0.185,-0.185,-0.1853,-0.1925,-0.1933,-0.1939,-0.1917,-0.1922,-0.186,-0.1859,-0.1859,-0.1858,0,-0.1307,-0.1359,-0.1388,-0.1471,-0.1515,-0.1567,-0.1629,-0.1679,-0.1722,-0.1755,-0.1827,-0.1846,-0.1888,-0.1902,-0.1895,-0.1953,-0.1931,-0.1928,-0.1898,-0.1954,-0.1926,-0.193,-0.1864,-0.1863,-0.1862,-0.1861,0,0,-0.1276,-0.1396,-0.1409,-0.146,-0.1556,-0.1596,-0.1673,-0.1745,-0.1798,-0.1859,-0.1922,-0.1966,-0.1975,-0.1989,-0.1992,-0.2016,-0.2049,-0.2,-0.2,-0.1973,-0.208,-0.1916,-0.1904,-0.207,-0.2071,-0.2073,-0.2036,0,-0.1304,-0.1408,-0.1463,-0.1558,-0.1614,-0.1679,-0.1747,-0.1815,-0.187,-0.1939,-0.1969,-0.2027,-0.2011,-0.2038,-0.2061,-0.2056,-0.2067,-0.2057,-0.2036,-0.2035,-0.1877,-0.1906,-0.2078,-0.2038,-0.2039,-0.204,-0.204,0,-0.1328,-0.1396,-0.1494,-0.1611,-0.1644,-0.1709,-0.1816,-0.1883,-0.1972,-0.2015,-0.2071,-0.2094,-0.2136,-0.2119,-0.2137,-0.2138,-0.2114,-0.2103,-0.2102,-0.193,-0.1878,-0.1976,-0.2047,-0.2047,-0.2046,-0.2046,-0.2045,0,-0.1284,-0.1417,-0.1495,-0.1538,-0.1672,-0.1733,-0.1807,-0.1904,-0.1962,-0.2062,-0.21,-0.216,-0.2182,-0.2193,-0.2152,-0.2162,-0.2152,-0.2157,-0.1983,-0.197,-0.2102,-0.2095,-0.2169,-0.2169,-0.2169,-0.2169,-0.2169,0,-0.1283,-0.1347,-0.1488,-0.1531,-0.1626,-0.1727,-0.1829,-0.1904,-0.2009,-0.2056,-0.2132,-0.2157,-0.2207,-0.2198,-0.2174,-0.2067,-0.2163,-0.1983,-0.1954,-0.2126,-0.2122,-0.2103,-0.2096,-0.2167,-0.2168,-0.2168,-0.2168,0,-0.1218,-0.1315,-0.1409,-0.156,-0.161,-0.1677,-0.1834,-0.1896,-0.2,-0.2062,-0.2092,-0.216,-0.2133,-0.2138,-0.2129,-0.2055,-0.1998,-0.1936,-0.2088,-0.2069,-0.1798,-0.1795,-0.175,-0.1744,-0.1739,-0.1734,-0.1731,0,-0.1197,-0.1238,-0.1403,-0.1461,-0.1536,-0.1655,-0.1729,-0.1871,-0.1923,-0.203,-0.2036,-0.2056,-0.2071,-0.191,-0.1948,-0.1873,-0.1849,-0.181,-0.1833,-0.1781,-0.1758,-0.1763,-0.1767,-0.1723,-0.1721,-0.172,-0.1719,0,-0.1134,-0.1202,-0.1277,-0.1391,-0.1486,-0.1577,-0.1689,-0.1715,-0.1847,-0.1956,-0.1911,-0.1877,-0.183,-0.1795,-0.1731,-0.1692,-0.184,-0.1757,-0.1768,-0.179,-0.1748,-0.1731,-0.1741,-0.1701,-0.1704,-0.1705,-0.1706,0,-0.1072,-0.1107,-0.1208,-0.1301,-0.1411,-0.1457,-0.154,-0.1587,-0.1647,-0.1763,-0.1737,-0.1748,-0.1803,-0.1698,-0.1652,-0.1582,-0.1567,-0.1528,-0.1551,-0.1571,-0.1527,-0.1449,-0.1279,0,0,0,0,0,-0.0987,-0.1021,-0.1109,-0.1201,-0.1308,-0.1357,-0.1489,-0.1569,-0.1691,-0.1607,-0.1665,-0.1608,-0.1524,-0.1543,-0.1429,-0.1576,-0.158,-0.144,-0.1551,-0.1603,-0.1624,-0.1589,0,0,0,0,0,0,-0.0922,-0.1,-0.1061,-0.1093,-0.1128,-0.1214,-0.1284,-0.1371,-0.134,-0.1459,-0.1417,-0.1497,-0.1438,-0.1538,-0.1384,-0.1388,-0.1423,-0.1461,-0.1456,-0.1592,-0.161,-0.1627,-0.1598,0,0,0,0,0]},{"header":{"parameterUnit":"m.s-1","parameterCategory":2,"la1":30.2991,"la2":30.254,"lo1":-89.0895,"lo2":-89.0444,"dy":0.0017,"dx":0.0017,"nx":28,"ny":28,"refTime":"2024-03-16T03:00:00:Z","depth":"4","parameterNumber":3,"parameterNumberName":"V-component_of_CURRENTS"},"data":[0,0,0,0,0,0,0,0,0,0,0,0,0,0,0,0,0,0,0,0,0,0,0,0,0,0,0,0,0,0,0,0,0,0,0,0,0,0,0,0,0,0,0,0,0,0,0,0,0,0,0,0,0,0,0,0,0,0,-0.0359,-0.0359,0,-0.0326,-0.0326,-0.0326,-0.0304,-0.0304,-0.0303,-0.0303,-0.0234,-0.0233,-0.0231,0,0,0,0,0,0,0,0,0,0,0,0,0,-0.0362,-0.0363,-0.0359,-0.0359,-0.0358,-0.0326,-0.0326,-0.0326,-0.0304,-0.0304,-0.0303,-0.0303,-0.0235,-0.0233,-0.0231,0,0,0,0,0,0,0,0,0,0,0,0,0,-0.035,-0.0363,-0.036,-0.0342,-0.034,-0.0327,-0.0326,-0.0326,-0.0304,-0.0304,-0.0303,-0.0303,-0.0235,-0.0233,-0.0231,-0.0225,0,0,-0.0223,-0.0222,0,0,0,0,0,0,0,0,-0.0351,-0.035,-0.0345,-0.0344,-0.0341,-0.0318,-0.0302,-0.029,-0.0304,-0.032,-0.0303,-0.0303,-0.0258,-0.0254,-0.0251,-0.0222,-0.0219,-0.0223,-0.0222,-0.0221,-0.022,0,0,0,0,0,0,0,-0.0352,-0.0351,-0.0348,-0.0345,-0.0342,-0.0322,-0.0321,-0.0299,-0.0292,-0.0318,-0.0316,-0.031,-0.0257,-0.0254,-0.0249,-0.0218,-0.0223,-0.0221,-0.022,-0.0219,-0.0175,-0.0175,0,0,0,0,0,0,-0.0356,-0.0352,-0.0349,-0.0347,-0.0343,-0.0323,-0.0321,-0.0327,-0.0293,-0.0287,-0.0311,-0.0309,-0.0258,-0.0252,-0.0247,-0.0231,-0.0221,-0.0219,-0.0217,-0.0175,-0.0175,-0.0175,0,0,0,0,0,0,-0.0356,-0.0356,-0.035,-0.0347,-0.0344,-0.0323,-0.033,-0.0326,-0.0326,-0.0287,-0.0281,-0.0314,-0.0257,-0.025,-0.0232,-0.0228,-0.0218,-0.0215,-0.0174,-0.0175,-0.0175,-0.0204,0,0,0,0,0,0,-0.0356,-0.0357,-0.0366,-0.0348,-0.0345,-0.035,-0.033,-0.0326,-0.0322,-0.032,-0.0288,-0.0281,-0.0256,-0.0236,-0.0229,-0.0225,-0.0214,-0.0174,-0.0175,-0.0175,-0.0203,-0.0206,-0.0208,0,0,0,0,0,-0.0357,-0.0374,-0.0367,-0.0366,-0.0357,-0.035,-0.0347,-0.0331,-0.0323,-0.0328,-0.0304,-0.0282,-0.0234,-0.0234,-0.0227,-0.0222,-0.0174,-0.0175,-0.0175,-0.0202,-0.0205,-0.0208,0,0,0,0,0,0,-0.0382,-0.0373,-0.0364,-0.0379,-0.0367,-0.0346,-0.0348,-0.0337,-0.0324,-0.0322,-0.0286,-0.0277,-0.0263,-0.0241,-0.0242,-0.0211,-0.02,-0.0199,-0.0223,-0.0226,-0.0228,-0.0222,-0.0212,0,0,0,0,0,-0.0391,-0.0402,-0.0385,-0.0396,-0.0391,-0.0371,-0.0367,-0.0358,-0.034,-0.0335,-0.031,-0.0283,-0.026,-0.0242,-0.0225,-0.0205,-0.0163,-0.0198,-0.02,-0.0202,-0.0193,-0.0118,-0.0113,-0.0177,-0.0177,-0.0177,0,0,-0.0406,-0.04,-0.0408,-0.0402,-0.0391,-0.0391,-0.0368,-0.0369,-0.0367,-0.0328,-0.032,-0.0296,-0.026,-0.0242,-0.0232,-0.022,-0.0166,-0.0203,-0.0205,-0.0194,-0.0118,-0.0112,-0.0106,-0.0178,-0.0177,-0.0177,0,0,-0.0435,-0.0433,-0.0448,-0.044,-0.0427,-0.0413,-0.0416,-0.0398,-0.0389,-0.0379,-0.0349,-0.0316,-0.0293,-0.0252,-0.0231,-0.0234,-0.0189,-0.0239,-0.0233,-0.0162,-0.0155,-0.0149,-0.0104,-0.0093,-0.023,-0.023,-0.023,0,-0.0449,-0.0466,-0.0451,-0.0457,-0.0452,-0.0426,-0.0434,-0.0422,-0.0401,-0.0384,-0.0383,-0.0317,-0.0291,-0.0239,-0.0244,-0.0237,-0.02,-0.0225,-0.0163,-0.0155,-0.0148,-0.0103,-0.0091,-0.0231,-0.0231,-0.0231,-0.0231,0,-0.0483,-0.0495,-0.0502,-0.05,-0.0493,-0.0499,-0.0474,-0.0465,-0.0449,-0.0424,-0.0383,-0.0338,-0.029,-0.028,-0.0264,-0.0203,-0.0197,-0.0181,-0.0153,-0.0143,-0.0097,-0.0084,-0.0234,-0.0233,-0.0233,-0.0232,0,0,-0.0516,-0.0526,-0.0528,-0.0533,-0.0517,-0.0515,-0.0505,-0.0479,-0.0461,-0.043,-0.0392,-0.0345,-0.0307,-0.0281,-0.0243,-0.018,-0.011,-0.0164,-0.016,-0.0115,0.0033,0.0004,0.0016,-0.0082,-0.0079,-0.0077,0.0039,0,-0.0545,-0.0573,-0.0564,-0.0582,-0.0591,-0.0558,-0.0547,-0.0518,-0.0485,-0.0442,-0.0372,-0.0333,-0.0311,-0.0285,-0.0215,-0.014,-0.0074,-0.0144,0.0013,0.0018,-0.0003,0.0032,-0.007,0.0049,0.0052,0.0054,0.0056,0,-0.0578,-0.0591,-0.0623,-0.0618,-0.0617,-0.0622,-0.0586,-0.0572,-0.0501,-0.0469,-0.0398,-0.0348,-0.0255,-0.024,-0.0078,-0.0127,-0.005,0.0014,0.002,0.0018,0.0015,0.0043,0.0081,0.0079,0.0077,0.0075,0.0074,0,-0.061,-0.0627,-0.0656,-0.0658,-0.065,-0.0652,-0.064,-0.0585,-0.0562,-0.0482,-0.0447,-0.0333,-0.0275,-0.0154,-0.0039,-0.0051,0.0136,0.014,0.0193,0.0191,0.0194,0.0187,0.0269,0.0268,0.0268,0.0268,0.0268,0,-0.064,-0.0662,-0.068,-0.0697,-0.0718,-0.0692,-0.0691,-0.0656,-0.0593,-0.0553,-0.0466,-0.0401,-0.0249,-0.0133,-0.0026,0.0119,0.0153,0.0206,0.023,0.0174,0.0163,0.0203,0.0194,0.0272,0.0271,0.027,0.027,0,-0.0669,-0.0687,-0.072,-0.0732,-0.0742,-0.0756,-0.0742,-0.0725,-0.0664,-0.0605,-0.058,-0.0439,-0.0289,-0.0143,0.0055,0.0128,0.0271,0.0314,0.023,0.0245,0.0274,0.0262,0.0395,0.0395,0.0395,0.0395,0.0395,0,-0.0683,-0.0711,-0.0756,-0.0786,-0.0801,-0.0819,-0.0824,-0.0773,-0.074,-0.0623,-0.0586,-0.044,-0.0338,-0.007,0.0069,0.0276,0.0298,0.0362,0.0335,0.0283,0.0293,0.028,0.0268,0.0396,0.0396,0.0396,0.0396,0,-0.0704,-0.0732,-0.0758,-0.0829,-0.0862,-0.0877,-0.0874,-0.085,-0.0768,-0.072,-0.0563,-0.0419,-0.0251,-0.0062,0.0089,0.0236,0.0316,0.0365,0.0365,0.034,0.0286,0.0293,0.0281,0.0396,0.0396,0.0396,0.0396,0,-0.0712,-0.0743,-0.0796,-0.0851,-0.0901,-0.0911,-0.0906,-0.0841,-0.0791,-0.0647,-0.0599,-0.0407,-0.029,-0.0082,0.0063,0.0195,0.0228,0.0264,0.027,0.0271,0.0188,0.0098,0.0187,0,0,0,0,0,-0.0701,-0.0747,-0.081,-0.0866,-0.0917,-0.094,-0.0923,-0.0896,-0.0819,-0.0708,-0.0642,-0.0478,-0.0236,-0.0126,0.0006,0.0038,0.0222,0.0193,0.0259,0.04,0.0399,0.0319,0,0,0,0,0,0,-0.0699,-0.0762,-0.0805,-0.0868,-0.0908,-0.0945,-0.0932,-0.0883,-0.0799,-0.0707,-0.0571,-0.0472,-0.0238,-0.0317,-0.0001,0.004,0.0095,0.0314,0.0316,0.04,0.04,0.0399,0.0316,0,0,0,0,0]}]]